Tracking 31027 objects as of 19-Jul-2025
HD Live streaming from Space Station
objects crossing your sky now

ARIANE 5 DEB (SYLDA)

Track ARIANE 5 DEB (SYLDA) now!


NORAD ID: 26109
Int'l Code: 2000-016C
Perigee: 608.9 km
Apogee: 35,387.9 km
Inclination: 7.0 °
Period: 631.0 minutes
Semi major axis: 24369 km
RCS: 16.5211 m2 (large)
Launch date: March 21, 2000
Source: France (FR)
Launch site: FRENCH GUIANA (FRGUI)

Note: This is SATELLITE DEBRIS
Your satellite tracking list
FENGYUN 1C DEB
Track 1 satellite(s)




NASA's NSSDC Master Catalog

Two Line Element Set (TLE):
1 26109U 00016C   25199.03556108 -.00000096  00000-0 -86394-3 0  9999
2 26109   7.0304  40.1901 7135790 315.9788   5.5023  2.28210108210116
Source of the keplerian elements: AFSPC